Home > Time Zones > World Clock > Weather > Spain > Cadiz > Past weeks

Flag for Spain Weather past 2 weeks in Cadiz, Cádiz, Spain

Now
82 °F

Sunny.


Feels Like: 88 °F
Forecast: 72 / 81 °F
Wind: 3 mph from North

Location: Rota Airport

Current Time: Jul 29, 2015 at 11:37:43 AM

Latest Report: Jul 29, 2015 at 11:00 AM


Visibility: 10 mi

Pressure: 29.89 "Hg

Humidity: 74%

Dew point: 73 °F

Location of CadizLocation

Historic Weather in Cadiz — Graph

°F

Cadiz temperature yesterday

Maximum temperature yesterday: 86 °F (at 6:00 PM)
Minimum temperature yesterday: 70 °F (at 6:00 AM)
Average temperature yesterday: 78 °F

Past Weeks' High & Low Weather Summary

 TemperatureHumidityPressure
High97 °F (Jul 17, 1:00 PM)94% (Jul 18, 8:00 AM)30.07 "Hg (Jul 18, 8:00 AM)
Low68 °F (Jul 24, 7:00 AM)26% (Jul 17, 7:00 PM)29.83 "Hg (Jul 28, 7:00 PM)
Average79 °F67%29.95 "Hg
* Reported Jul 14 10:00 AM — Jul 29 10:00 AM, Cadiz, Weather by CustomWeather, © 2015

Note: Actual official high and low records may vary slightly from our data, if they occured in-between our weather recording intervals... More about our weather records

Advertising

Cadiz weather history for previous 24 hours

 ConditionsComfort  
Time TempWeatherWind HumidityBarometerVisibility
10:00 AM
Wed, Jul 29
79 °FScattered clouds.No wind65%29.89 "HgN/A
9:00 AM77 °FClear.No wind83%29.89 "Hg5 mi
8:00 AM73 °FClear.No wind89%29.89 "Hg5 mi
7:00 AM75 °FPassing clouds.3 mph89%29.86 "HgN/A
6:00 AM75 °FPassing clouds.6 mph94%29.86 "HgN/A
5:00 AM75 °FPassing clouds.6 mph89%29.86 "HgN/A
4:00 AM75 °FClear.3 mph89%29.86 "Hg10 mi
3:00 AM75 °FClear.6 mph89%29.89 "Hg10 mi
2:00 AM75 °FClear.6 mph89%29.89 "Hg10 mi
1:00 AM75 °FPassing clouds.6 mph83%29.89 "HgN/A
12:00 AM75 °FPassing clouds.3 mph78%29.89 "HgN/A
11:00 PM
Tue, Jul 28
75 °FClear.3 mph78%29.89 "Hg10 mi
10:00 PM77 °FPassing clouds.9 mph74%29.86 "HgN/A
9:00 PM79 °FSunny.5 mph70%29.86 "Hg10 mi
8:00 PM81 °FPassing clouds.10 mph62%29.83 "HgN/A
7:00 PM82 °FPassing clouds.12 mph58%29.83 "HgN/A
6:00 PM86 °FPassing clouds.8 mph46%29.86 "HgN/A
5:00 PM84 °FSunny.9 mph55%29.86 "Hg10 mi
4:00 PM84 °FSunny.10 mph62%29.89 "Hg10 mi
3:00 PM84 °FPassing clouds.9 mph62%29.89 "HgN/A
2:00 PM84 °FPassing clouds.9 mph66%29.89 "HgN/A
1:00 PM84 °FPassing clouds.6 mph58%29.89 "HgN/A
12:00 PM82 °FPassing clouds.5 mph62%29.89 "HgN/A
11:00 AM82 °FSunny.2 mph70%29.89 "Hg10 mi
Weather by CustomWeather, © 2015

See weather overviewHow to use our weather pages